User: anonymous   Login
Location: Unspecified
(0.0000°N, 0.0000°E)
Time: 19:23:18
(UTC+00:00)
Language:

BUGSAT 1 - Orbit

View from above orbital plane
View from above orbital plane
View from above satellite
View from above satellite

Ground track
Ground track

The orbit data is extracted from the following two-line orbital elements,

1 40014U 14033E   18019.38255709  .00000563  00000-0  56776-4 0  9997
2 40014  97.9684 312.3246 0031600 331.7845  28.1577 14.94963505195502
Epoch (UTC): 19 January 2018 09:10:52
Eccentricity: 0.0031600
inclination: 97.9684°
perigee height: 560 km
apogee height: 604 km
right ascension of ascending node: 312.3246°
argument of perigee: 331.7845°
revolutions per day: 14.94963505
mean anomaly at epoch: 28.1577°
orbit number at epoch: 19550

The dashed part of the orbit path shows where the satellite is in the earth's shadow,  

DLR